QPF
0.00 0.00 0.00 0.00 0.01 0.02 0.07 0.13 0.06 0.01 0.05 0.04 0.02 0.02 0.16 0.60 0.43 0.10 0.05 0.02 0.04 0.05 0.06 0.08 0.13 0.17 0.21 0.31 0.46 0.35 0.21 0.12 0.14 0.04 0.00 0.00 0.00 0.00 0.00 0.01 0.00 0.00 0.00 0.00
0.00 0.00 0.00 0.00 0.02 0.05 0.02 0.09 0.04 0.02 0.06 0.07 0.03 0.04 0.08 0.37 0.47 0.19 0.08 0.01 0.01 0.02 0.03 0.04 0.08 0.13 0.06 0.09 0.40 0.49 0.47 0.32 0.22 0.23 0.12 0.10 0.04 0.02 0.00 0.02 0.01 0.01 0.02 0.01
0.00 0.00 0.00 0.00 0.07 0.04 0.01 0.04 0.04 0.04 0.04 0.06 0.07 0.06 0.06 0.16 0.29 0.30 0.14 0.02 0.00 0.00 0.00 0.02 0.03 0.14 0.13 0.04 0.20 0.64 0.59 0.40 0.30 0.36 0.48 0.38 0.26 0.14 0.16 0.08 0.05 0.09 0.05 0.01
0.00 0.00 0.00 0.00 0.03 0.01 0.01 0.01 0.05 0.04 0.03 0.07 0.14 0.05 0.03 0.04 0.09 0.16 0.21 0.05 0.00 0.00 0.00 0.00 0.01 0.05 0.11 0.07 0.12 0.39 0.53 0.54 0.32 0.32 0.30 0.29 0.28 0.24 0.15 0.10 0.12 0.16 0.10 0.01
0.00 0.00 0.00 0.01 0.01 0.03 0.09 0.00 0.01 0.02 0.02 0.04 0.05 0.00 0.02 0.03 0.02 0.05 0.12 0.12 0.00 0.00 0.00 0.00 0.00 0.01 0.04 0.11 0.16 0.21 0.29 0.31 0.49 0.30 0.27 0.23 0.18 0.18 0.17 0.12 0.15 0.09 0.07 0.03
0.00 0.00 0.00 0.02 0.02 0.10 0.10 0.00 0.00 0.00 0.01 0.03 0.05 0.00 0.00 0.01 0.01 0.02 0.02 0.17 0.01 0.00 0.00 0.00 0.00 0.00 0.00 0.02 0.11 0.23 0.29 0.25 0.26 0.31 0.34 0.30 0.31 0.28 0.19 0.14 0.16 0.21 0.28 0.34
0.05 0.07 0.08 0.09 0.09 0.15 0.15 0.01 0.02 0.08 0.04 0.01 0.00 0.00 0.00 0.00 0.00 0.01 0.01 0.06 0.06 0.00 0.00 0.00 0.00 0.00 0.00 0.00 0.03 0.10 0.14 0.16 0.22 0.22 0.24 0.21 0.25 0.13 0.12 0.15 0.28 0.15 0.18 0.17
0.14 0.09 0.04 0.01 0.02 0.10 0.17 0.02 0.01 0.03 0.01 0.00 0.00 0.00 0.00 0.00 0.00 0.00 0.00 0.00 0.05 0.00 0.00 0.00 0.00 0.00 0.00 0.00 0.01 0.05 0.06 0.09 0.10 0.06 0.07 0.03 0.05 0.07 0.08 0.12 0.11 0.00 0.02 0.01
0.01 0.01 0.01 0.00 0.00 0.06 0.10 0.01 0.00 0.00 0.00 0.00 0.00 0.00 0.00 0.00 0.00 0.00 0.00 0.00 0.00 0.00 0.00 0.00 0.00 0.00 0.00 0.00 0.00 0.00 0.00 0.01 0.02 0.02 0.01 0.00 0.01 0.01 0.03 0.03 0.00 0.00 0.00 0.00
0.00 0.00 0.00 0.00 0.00 0.04 0.06 0.01 0.00 0.00 0.00 0.00 0.00 0.00 0.00 0.00 0.00 0.00 0.00 0.00 0.00 0.00 0.00 0.00 0.00 0.00 0.00 0.00 0.00 0.00 0.00 0.00 0.00 0.00 0.00 0.00 0.00 0.01 0.01 0.00 0.00 0.00 0.00 0.00
0.00 0.00 0.00 0.00 0.00 0.01 0.03 0.02 0.01 0.00 0.00 0.00 0.00 0.00 0.00 0.00 0.00 0.00 0.00 0.00 0.00 0.00 0.00 0.00 0.00 0.00 0.00 0.00 0.00 0.00 0.00 0.01 0.00 0.00 0.00 0.00 0.01 0.01 0.00 0.00 0.00 0.00 0.00 0.00
0.00 0.00 0.00 0.00 0.00 0.00 0.00 0.00 0.00 0.00 0.00 0.00 0.00 0.00 0.00 0.00 0.00 0.00 0.00 0.00 0.00 0.00 0.00 0.00 0.00 0.00 0.00 0.00 0.00 0.01 0.01 0.00 0.00 0.00 0.00 0.01 0.00 0.01 0.01 0.00 0.00 0.00 0.00 0.00
0.00 0.00 0.00 0.00 0.00 0.00 0.00 0.00 0.00 0.00 0.00 0.00 0.00 0.00 0.00 0.00 0.00 0.00 0.00 0.00 0.00 0.00 0.00 0.00 0.00 0.00 0.00 0.00 0.00 0.00 0.00 0.00 0.00 0.01 0.01 0.00 0.00 0.00 0.00 0.00 0.00 0.00 0.00 0.00
0.00 0.00 0.00 0.00 0.00 0.00 0.00 0.00 0.00 0.00 0.00 0.00 0.00 0.00 0.00 0.00 0.00 0.00 0.00 0.00 0.00 0.00 0.00 0.00 0.00 0.00 0.00 0.00 0.00 0.00 0.00 0.00 0.00 0.00 0.00 0.00 0.00 0.00 0.00 0.00 0.00 0.00 0.00 0.00
0.00 0.00 0.00 0.00 0.00 0.00 0.00 0.00 0.00 0.00 0.00 0.00 0.00 0.00 0.00 0.00 0.00 0.00 0.00 0.00 0.00 0.00 0.00 0.00 0.00 0.00 0.00 0.00 0.00 0.00 0.00 0.00 0.00 0.00 0.00 0.00 0.00 0.00 0.00 0.00 0.00 0.00 0.00 0.00
0.00 0.00 0.00 0.00 0.00 0.00 0.00 0.00 0.00 0.00 0.00 0.00 0.00 0.00 0.00 0.00 0.00 0.00 0.00 0.00 0.00 0.00 0.00 0.00 0.00 0.00 0.00 0.00 0.00 0.00 0.00 0.00 0.00 0.00 0.00 0.00 0.00 0.00 0.00 0.00 0.00 0.00 0.00 0.00
0.00 0.00 0.00 0.00 0.00 0.00 0.00 0.00 0.00 0.00 0.00 0.00 0.00 0.00 0.00 0.00 0.00 0.00 0.00 0.00 0.00 0.00 0.00 0.00 0.00 0.00 0.00 0.00 0.00 0.00 0.00 0.00 0.00 0.00 0.00 0.00 0.00 0.00 0.00 0.00 0.00 0.00 0.00 0.00
0.00 0.00 0.00 0.00 0.00 0.00 0.00 0.00 0.00 0.00 0.00 0.00 0.00 0.00 0.00 0.00 0.00 0.00 0.00 0.00 0.00 0.00 0.00 0.00 0.00 0.00 0.00 0.00 0.00 0.00 0.00 0.00 0.00 0.00 0.00 0.00 0.00 0.00 0.00 0.00 0.00 0.00 0.00 0.00
0.00 0.00 0.00 0.00 0.00 0.00 0.00 0.00 0.00 0.00 0.00 0.00 0.00 0.00 0.00 0.00 0.00 0.00 0.00 0.00 0.00 0.00 0.00 0.00 0.00 0.00 0.00 0.00 0.00 0.00 0.00 0.00 0.00 0.00 0.00 0.00 0.00 0.00 0.00 0.00 0.00 0.00 0.00 0.00
0.00 0.00 0.00 0.00 0.00 0.00 0.00 0.00 0.00 0.00 0.00 0.00 0.00 0.00 0.00 0.00 0.00 0.00 0.00 0.00 0.00 0.00 0.00 0.00 0.00 0.00 0.00 0.00 0.00 0.00 0.00 0.00 0.00 0.00 0.00 0.00 0.00 0.00 0.00 0.00 0.00 0.00 0.00 0.00
0.00 0.00 0.00 0.00 0.00 0.00 0.00 0.00 0.00 0.00 0.00 0.00 0.00 0.00 0.00 0.00 0.00 0.00 0.00 0.00 0.00 0.00 0.00 0.00 0.00 0.00 0.00 0.00 0.00 0.00 0.00 0.00 0.00 0.00 0.00 0.00 0.00 0.00 0.00 0.00 0.00 0.00 0.00 0.00
0.00 0.00 0.00 0.00 0.00 0.00 0.00 0.00 0.00 0.00 0.00 0.00 0.00 0.00 0.00 0.00 0.00 0.00 0.00 0.00 0.00 0.00 0.00 0.00 0.00 0.00 0.00 0.00 0.00 0.00 0.00 0.00 0.00 0.00 0.00 0.00 0.00 0.00 0.00 0.00 0.00 0.00 0.00 0.00
0.00 0.00 0.00 0.00 0.00 0.00 0.00 0.00 0.00 0.00 0.00 0.00 0.00 0.00 0.00 0.00 0.00 0.00 0.00 0.00 0.00 0.00 0.00 0.00 0.00 0.00 0.00 0.00 0.00 0.00 0.00 0.00 0.00 0.00 0.00 0.00 0.00 0.00 0.00 0.00 0.00 0.00 0.00 0.00
0.00 0.00 0.00 0.00 0.00 0.00 0.00 0.00 0.00 0.00 0.00 0.00 0.00 0.00 0.00 0.00 0.00 0.00 0.00 0.00 0.00 0.00 0.00 0.00 0.00 0.00 0.00 0.00 0.00 0.00 0.00 0.00 0.00 0.00 0.00 0.00 0.00 0.00 0.00 0.00 0.00 0.00 0.00 0.00
0.00 0.00 0.00 0.00 0.00 0.00 0.00 0.00 0.00 0.00 0.00 0.00 0.00 0.00 0.00 0.00 0.00 0.00 0.00 0.00 0.00 0.00 0.00 0.00 0.00 0.00 0.00 0.00 0.00 0.00 0.00 0.00 0.00 0.00 0.00 0.00 0.00 0.00 0.00 0.00 0.00 0.00 0.00 0.00
0.00 0.00 0.00 0.00 0.00 0.00 0.00 0.00 0.00 0.00 0.00 0.00 0.00 0.00 0.00 0.00 0.00 0.00 0.00 0.00 0.00 0.00 0.00 0.00 0.00 0.00 0.00 0.00 0.00 0.00 0.00 0.00 0.00 0.00 0.00 0.00 0.00 0.00 0.00 0.00 0.00 0.00 0.00 0.00
MSLP
1016.47 1016.78 1016.54 1015.75 1015.21 1014.92 1014.20 1013.35 1011.62 1009.52 1008.32 1009.07 1009.83 1010.07 1009.89 1010.92 1012.14 1011.66 1010.49 1009.96 1009.61 1009.32 1009.30 1008.53 1008.42 1008.59 1009.42 1009.71 1010.69 1010.39 1010.88 1012.03 1013.39 1014.32 1015.28 1016.01 1016.23 1016.92 1017.39 1017.55 1017.69 1017.98 1018.38 1018.81
1017.25 1016.73 1015.73 1015.26 1014.66 1014.21 1013.48 1012.64 1010.73 1009.23 1009.17 1009.29 1009.75 1009.99 1010.43 1011.28 1011.12 1011.86 1010.11 1010.08 1009.87 1009.72 1009.69 1009.34 1008.99 1009.26 1009.55 1009.71 1009.58 1009.41 1009.68 1011.43 1012.68 1013.80 1014.63 1015.26 1015.82 1016.40 1016.87 1017.13 1017.30 1017.53 1017.77 1018.22
1017.02 1016.06 1015.48 1014.98 1014.29 1013.73 1012.63 1012.07 1010.99 1009.71 1009.12 1009.31 1009.85 1010.38 1010.47 1010.60 1010.78 1009.59 1009.19 1010.33 1009.90 1009.48 1010.01 1009.92 1009.64 1009.67 1009.80 1009.87 1010.25 1010.51 1010.75 1011.07 1012.50 1013.51 1014.14 1015.07 1015.92 1016.62 1016.96 1017.03 1017.11 1017.57 1017.82 1017.93
1016.60 1015.74 1015.27 1014.36 1013.97 1013.47 1012.45 1011.49 1010.81 1009.86 1009.36 1009.52 1010.31 1010.44 1010.50 1010.93 1010.54 1010.03 1010.99 1010.17 1009.61 1009.71 1009.49 1009.71 1009.56 1009.52 1009.43 1009.72 1010.43 1010.68 1010.90 1011.66 1011.99 1012.92 1013.61 1014.65 1015.53 1015.89 1016.44 1016.83 1016.77 1017.03 1017.72 1017.71
1016.50 1015.69 1015.02 1014.14 1013.31 1013.05 1012.47 1011.52 1011.13 1010.79 1010.36 1010.72 1010.53 1010.27 1010.23 1009.46 1009.03 1009.86 1010.46 1009.21 1009.30 1009.27 1009.50 1009.41 1009.40 1009.57 1009.74 1010.17 1010.99 1011.37 1011.69 1011.36 1010.11 1012.34 1013.17 1013.78 1015.13 1015.63 1016.17 1016.44 1016.94 1017.22 1017.25 1017.07
1016.07 1015.52 1015.14 1014.20 1013.35 1013.11 1012.68 1012.01 1011.46 1011.15 1010.88 1010.65 1010.37 1009.89 1010.08 1010.24 1009.96 1009.53 1008.79 1008.59 1009.23 1009.11 1009.11 1009.00 1009.05 1009.26 1009.69 1010.03 1010.46 1011.02 1011.68 1011.91 1012.07 1012.72 1013.19 1013.76 1014.66 1015.08 1015.60 1016.50 1016.54 1016.82 1017.01 1017.23
1015.49 1014.93 1014.48 1014.12 1013.56 1013.25 1012.91 1012.41 1012.45 1012.34 1011.88 1011.57 1010.52 1009.93 1009.60 1009.36 1008.63 1008.37 1008.30 1008.67 1008.61 1008.91 1008.89 1008.62 1008.82 1009.37 1009.70 1010.18 1011.41 1011.65 1011.98 1012.46 1012.36 1012.56 1012.80 1013.68 1014.10 1014.81 1015.38 1015.86 1016.07 1016.55 1017.07 1017.36
1015.43 1014.75 1014.06 1013.70 1013.60 1013.22 1013.16 1012.83 1012.61 1012.48 1012.11 1012.20 1011.48 1010.78 1010.12 1009.66 1009.01 1008.18 1008.29 1008.89 1009.71 1009.31 1009.11 1008.43 1008.66 1009.37 1009.80 1010.03 1010.46 1011.15 1011.97 1012.13 1012.07 1012.49 1013.10 1013.02 1013.88 1014.54 1014.81 1015.35 1015.82 1016.38 1017.07 1017.46
1015.49 1015.06 1014.08 1013.40 1013.45 1013.42 1013.37 1013.40 1013.39 1013.04 1012.84 1012.15 1012.26 1011.36 1010.32 1009.55 1009.34 1009.22 1008.86 1008.65 1009.21 1008.85 1009.29 1008.66 1008.89 1009.34 1009.94 1010.10 1010.41 1010.43 1011.27 1011.77 1012.12 1012.70 1013.00 1013.40 1013.95 1014.47 1014.98 1015.55 1015.98 1016.65 1017.37 1017.66
1015.55 1015.55 1014.63 1013.80 1013.65 1013.45 1013.21 1013.55 1013.31 1012.75 1013.32 1013.78 1013.04 1012.10 1011.58 1010.86 1010.41 1009.82 1009.48 1009.44 1009.81 1009.78 1009.39 1009.12 1009.84 1009.96 1010.17 1010.28 1010.55 1010.95 1011.31 1011.99 1012.56 1013.16 1013.56 1013.86 1014.40 1014.93 1015.39 1015.80 1016.49 1017.16 1017.70 1018.03
1015.10 1015.26 1014.82 1014.22 1014.18 1013.99 1013.62 1013.51 1013.54 1013.64 1013.95 1013.60 1013.73 1013.65 1012.35 1011.74 1011.06 1010.56 1010.35 1010.60 1010.54 1010.51 1010.57 1010.43 1010.59 1010.84 1010.65 1010.59 1011.14 1011.50 1011.66 1012.23 1012.79 1013.47 1013.81 1014.23 1014.84 1015.37 1015.86 1016.40 1017.22 1017.52 1018.18 1018.63
1014.99 1015.34 1015.75 1014.91 1014.43 1014.12 1014.00 1013.94 1013.95 1014.05 1014.80 1014.67 1014.08 1013.59 1012.22 1011.60 1010.99 1010.71 1011.05 1011.40 1011.24 1010.98 1010.35 1010.82 1011.10 1011.08 1011.01 1011.10 1011.69 1011.99 1012.41 1012.89 1013.48 1013.89 1014.19 1014.85 1015.39 1016.11 1016.34 1017.00 1017.68 1017.83 1018.47 1018.89
1015.02 1015.49 1015.87 1015.11 1014.79 1014.21 1014.22 1014.19 1014.15 1014.64 1014.95 1015.42 1014.81 1014.72 1013.39 1012.83 1012.71 1012.26 1012.28 1012.21 1011.76 1011.37 1011.19 1011.19 1011.46 1011.73 1011.44 1011.72 1012.20 1012.73 1013.12 1013.54 1013.97 1014.52 1014.97 1015.60 1016.18 1016.53 1017.22 1017.69 1018.01 1018.43 1018.88 1019.39
1014.77 1015.24 1015.62 1015.87 1015.57 1015.31 1014.92 1014.68 1014.66 1014.61 1014.85 1015.32 1015.03 1014.68 1014.23 1013.98 1013.90 1013.74 1013.53 1013.14 1012.41 1012.19 1012.15 1011.94 1011.97 1012.02 1012.05 1012.44 1012.75 1013.34 1013.80 1014.29 1014.64 1015.25 1015.42 1015.99 1016.54 1017.02 1017.54 1018.30 1018.50 1018.87 1019.27 1019.90
1015.19 1015.82 1015.64 1015.38 1014.85 1014.75 1014.83 1014.88 1014.80 1014.86 1014.75 1014.57 1014.66 1014.31 1014.26 1013.99 1013.86 1013.72 1013.25 1012.80 1012.70 1012.67 1012.58 1012.22 1012.44 1012.45 1012.68 1013.13 1013.42 1013.83 1014.33 1014.71 1015.18 1015.66 1015.94 1016.59 1016.99 1017.49 1018.21 1018.69 1019.18 1019.64 1019.98 1020.19
1015.69 1016.23 1016.13 1015.86 1015.22 1014.93 1015.05 1015.00 1014.98 1014.75 1014.54 1014.33 1014.24 1013.78 1013.35 1013.25 1013.40 1013.71 1013.97 1013.78 1013.75 1013.54 1013.48 1013.03 1012.97 1013.11 1013.51 1013.90 1014.60 1014.79 1014.73 1015.00 1015.87 1016.20 1016.55 1016.99 1017.63 1017.88 1018.59 1019.53 1019.64 1019.71 1019.88 1020.24
1016.25 1016.57 1016.61 1016.37 1015.72 1015.37 1015.18 1015.10 1014.84 1014.68 1014.39 1014.35 1014.14 1014.20 1013.92 1014.08 1014.26 1014.58 1014.75 1014.77 1014.70 1014.53 1014.23 1013.90 1013.80 1013.72 1014.09 1014.13 1014.63 1015.02 1015.31 1015.37 1016.10 1016.61 1017.03 1017.43 1017.95 1018.30 1018.73 1019.16 1019.55 1019.80 1020.30 1020.86
1016.97 1016.92 1016.78 1016.40 1015.82 1015.83 1015.49 1014.87 1014.70 1014.79 1014.67 1014.33 1014.30 1014.31 1014.27 1014.31 1014.83 1015.44 1015.58 1015.58 1015.49 1015.40 1015.26 1014.72 1013.94 1013.53 1013.99 1014.54 1014.92 1014.96 1015.27 1015.85 1016.55 1016.63 1016.71 1017.54 1018.06 1018.44 1018.91 1019.61 1019.95 1020.31 1020.78 1021.38
1017.27 1017.36 1017.33 1017.12 1017.01 1016.40 1015.58 1015.37 1015.11 1014.95 1015.07 1014.76 1014.75 1014.79 1014.91 1015.16 1015.58 1015.97 1016.08 1016.05 1016.19 1015.96 1015.84 1015.46 1014.85 1014.55 1014.61 1014.92 1015.05 1014.98 1015.65 1016.01 1016.32 1016.75 1017.14 1017.55 1018.26 1019.07 1019.50 1019.94 1020.31 1020.54 1021.02 1021.67
1017.38 1017.57 1017.78 1017.42 1017.18 1016.78 1016.07 1015.42 1015.18 1015.28 1015.43 1014.92 1014.83 1014.95 1015.19 1015.50 1016.32 1016.85 1016.68 1016.59 1016.62 1016.27 1016.21 1015.69 1015.15 1014.77 1014.87 1014.99 1015.01 1015.25 1015.60 1016.04 1016.66 1016.98 1017.39 1017.75 1018.40 1018.99 1019.40 1019.92 1020.66 1020.50 1020.95 1021.63
1017.62 1017.92 1018.05 1017.83 1017.57 1017.01 1016.09 1015.53 1015.27 1015.71 1016.16 1015.20 1015.13 1015.21 1015.34 1015.80 1016.37 1016.81 1016.93 1017.00 1016.86 1016.61 1016.26 1015.78 1015.38 1015.24 1015.15 1015.39 1015.43 1015.94 1016.27 1016.37 1016.38 1017.06 1017.57 1017.88 1018.07 1018.66 1019.46 1019.84 1020.30 1020.41 1021.02 1021.44
1017.47 1017.95 1018.08 1018.03 1017.67 1017.43 1016.43 1015.94 1016.12 1016.40 1015.90 1015.63 1015.47 1015.42 1015.55 1015.96 1016.38 1016.78 1017.09 1017.31 1017.38 1017.43 1017.08 1016.53 1016.33 1016.39 1016.18 1015.95 1015.72 1016.23 1016.46 1016.35 1016.53 1017.13 1017.88 1018.16 1018.74 1019.00 1019.15 1019.75 1020.14 1020.35 1020.91 1021.05
1017.60 1017.49 1017.54 1017.69 1017.51 1017.23 1016.98 1016.83 1016.67 1016.59 1016.33 1016.01 1015.80 1015.72 1015.77 1016.12 1016.44 1016.83 1017.29 1017.60 1017.74 1017.59 1017.46 1017.25 1016.97 1016.86 1016.58 1016.34 1016.21 1016.43 1016.55 1016.52 1016.74 1017.13 1017.63 1018.01 1018.08 1018.68 1019.22 1019.62 1019.86 1020.09 1020.35 1020.80
1017.58 1017.35 1017.47 1017.59 1017.43 1017.29 1017.10 1016.97 1016.99 1016.86 1016.70 1016.42 1016.33 1016.13 1016.01 1016.15 1016.49 1016.95 1017.26 1017.56 1017.76 1017.84 1017.80 1017.68 1017.63 1017.24 1017.13 1016.90 1016.66 1016.72 1016.73 1016.74 1016.98 1017.38 1017.73 1018.04 1018.48 1018.85 1018.83 1019.08 1019.23 1019.81 1020.11 1020.30
1017.79 1017.56 1017.48 1017.68 1017.51 1017.48 1017.37 1017.31 1017.26 1017.06 1016.91 1016.77 1016.60 1016.31 1016.07 1016.23 1016.54 1016.94 1017.37 1017.72 1017.97 1018.12 1018.16 1018.11 1017.94 1017.86 1017.90 1017.76 1017.66 1017.57 1017.45 1017.36 1017.44 1017.66 1017.92 1018.18 1018.48 1018.71 1018.91 1019.01 1019.14 1019.27 1019.27 1019.55
1017.46 1017.11 1017.28 1017.29 1016.86 1017.05 1017.31 1017.53 1017.51 1017.41 1017.41 1017.21 1017.01 1016.51 1016.35 1016.34 1016.53 1016.90 1017.40 1017.84 1018.11 1018.38 1018.52 1018.55 1018.59 1018.52 1018.63 1018.65 1018.63 1018.52 1018.25 1018.01 1017.99 1018.02 1018.12 1018.34 1018.44 1018.55 1018.69 1018.81 1018.84 1018.85 1018.97 1019.28
Thickness
5393 5380 5374 5395 5415 5421 5435 5437 5453 5498 5517 5516 5521 5533 5544 5546 5526 5558 5586 5600 5613 5626 5637 5654 5666 5665 5670 5677 5678 5694 5691 5687 5680 5678 5675 5673 5676 5675 5675 5678 5679 5680 5679 5677
5377 5377 5406 5416 5426 5434 5440 5448 5476 5501 5510 5521 5521 5528 5534 5532 5539 5548 5581 5593 5605 5617 5627 5640 5653 5662 5666 5672 5683 5690 5673 5683 5681 5676 5675 5674 5674 5673 5672 5673 5675 5678 5678 5677
5380 5400 5409 5419 5426 5437 5454 5459 5477 5503 5514 5519 5525 5528 5533 5532 5535 5564 5582 5585 5600 5616 5620 5629 5642 5651 5661 5668 5673 5679 5668 5669 5671 5670 5668 5665 5661 5659 5662 5666 5671 5671 5670 5673
5386 5403 5413 5432 5431 5442 5448 5470 5486 5509 5512 5525 5514 5527 5529 5530 5545 5560 5567 5581 5596 5607 5621 5627 5638 5647 5658 5664 5666 5670 5674 5668 5675 5666 5665 5664 5658 5660 5660 5661 5667 5668 5663 5666
5383 5405 5423 5437 5451 5450 5465 5477 5487 5495 5501 5514 5515 5526 5528 5544 5553 5555 5562 5583 5597 5608 5615 5624 5635 5642 5650 5653 5653 5655 5662 5672 5668 5666 5668 5669 5663 5662 5661 5656 5659 5659 5662 5668
5403 5422 5428 5441 5454 5453 5459 5480 5492 5498 5502 5503 5518 5533 5528 5531 5545 5555 5571 5584 5591 5604 5614 5624 5633 5642 5648 5653 5656 5656 5656 5658 5663 5662 5662 5661 5657 5658 5652 5653 5655 5658 5659 5659
5432 5436 5438 5444 5457 5455 5457 5472 5476 5478 5477 5506 5518 5532 5538 5540 5558 5568 5582 5579 5595 5604 5612 5624 5629 5635 5641 5646 5642 5641 5647 5648 5654 5656 5654 5654 5654 5653 5653 5650 5651 5652 5651 5650
5440 5453 5457 5461 5458 5460 5466 5470 5471 5500 5508 5517 5524 5528 5538 5547 5557 5575 5580 5582 5581 5597 5608 5623 5628 5628 5633 5640 5644 5643 5642 5645 5650 5651 5649 5655 5650 5648 5651 5650 5650 5651 5647 5645
5449 5452 5464 5471 5468 5466 5474 5484 5488 5491 5496 5485 5503 5526 5546 5549 5553 5566 5576 5586 5589 5601 5602 5617 5623 5624 5625 5631 5636 5643 5640 5643 5645 5644 5646 5647 5645 5644 5644 5643 5643 5641 5637 5637
5453 5422 5464 5476 5471 5470 5480 5483 5486 5484 5502 5519 5514 5521 5524 5539 5548 5559 5573 5579 5582 5588 5600 5610 5612 5615 5620 5625 5627 5631 5634 5635 5634 5633 5634 5637 5637 5636 5635 5636 5633 5629 5626 5625
5461 5453 5463 5471 5472 5473 5485 5489 5499 5501 5489 5504 5505 5514 5529 5528 5539 5555 5560 5564 5573 5583 5588 5596 5600 5603 5611 5616 5615 5618 5624 5624 5624 5621 5624 5627 5627 5625 5625 5625 5620 5619 5615 5612
5468 5453 5442 5477 5482 5483 5484 5489 5494 5482 5502 5471 5475 5506 5524 5527 5543 5556 5554 5558 5564 5570 5584 5583 5590 5598 5603 5608 5607 5610 5612 5612 5610 5611 5614 5613 5614 5611 5613 5610 5607 5610 5606 5604
5475 5455 5416 5452 5476 5489 5486 5493 5500 5486 5482 5501 5493 5510 5526 5528 5536 5542 5547 5550 5558 5566 5574 5577 5581 5586 5596 5599 5598 5596 5598 5599 5599 5599 5600 5599 5598 5599 5596 5596 5598 5597 5594 5591
5486 5482 5458 5452 5474 5478 5470 5491 5490 5469 5475 5495 5484 5517 5519 5523 5529 5533 5539 5544 5553 5560 5565 5572 5575 5578 5584 5585 5587 5585 5585 5584 5585 5585 5589 5589 5588 5587 5586 5583 5584 5583 5582 5578
5482 5471 5487 5493 5500 5493 5491 5492 5499 5468 5493 5482 5509 5518 5522 5524 5527 5528 5536 5545 5551 5554 5561 5565 5567 5572 5574 5575 5578 5578 5576 5576 5576 5575 5577 5574 5575 5573 5570 5569 5568 5567 5566 5567
5481 5470 5473 5475 5489 5497 5489 5488 5497 5500 5506 5507 5508 5517 5524 5528 5525 5523 5523 5534 5538 5544 5549 5555 5558 5559 5560 5562 5560 5561 5567 5568 5562 5562 5563 5562 5559 5562 5558 5553 5557 5559 5559 5557
5481 5465 5459 5473 5481 5495 5479 5491 5497 5505 5509 5506 5514 5515 5520 5519 5519 5513 5515 5520 5524 5529 5535 5543 5547 5549 5549 5552 5552 5553 5553 5556 5553 5551 5550 5551 5550 5550 5550 5549 5548 5549 5546 5542
5466 5465 5468 5467 5484 5474 5487 5496 5500 5501 5499 5504 5508 5508 5509 5512 5507 5502 5503 5506 5510 5514 5519 5527 5535 5541 5541 5540 5541 5542 5542 5542 5540 5543 5545 5542 5541 5541 5539 5536 5536 5534 5532 5528
5458 5459 5470 5469 5463 5484 5491 5489 5492 5493 5492 5497 5502 5503 5503 5502 5500 5499 5497 5498 5498 5502 5508 5514 5521 5528 5531 5531 5532 5535 5533 5533 5533 5531 5531 5532 5529 5524 5523 5524 5523 5521 5519 5515
5455 5453 5458 5458 5462 5481 5486 5491 5491 5491 5487 5498 5500 5499 5498 5497 5491 5486 5487 5490 5492 5495 5497 5504 5510 5519 5521 5523 5524 5526 5527 5525 5521 5520 5519 5519 5517 5516 5516 5512 5507 5511 5510 5504
5459 5454 5458 5459 5450 5469 5479 5482 5487 5485 5476 5493 5496 5493 5492 5489 5485 5481 5482 5482 5483 5486 5490 5495 5501 5506 5511 5510 5512 5511 5510 5513 5516 5511 5509 5509 5510 5508 5503 5501 5500 5502 5497 5494
5472 5453 5454 5445 5455 5454 5464 5479 5489 5472 5479 5486 5488 5488 5488 5482 5480 5477 5474 5474 5474 5474 5479 5485 5487 5487 5491 5496 5501 5500 5501 5505 5504 5501 5497 5497 5493 5494 5494 5492 5492 5490 5486 5487
5477 5467 5463 5459 5459 5454 5457 5463 5463 5463 5469 5475 5479 5480 5481 5478 5477 5473 5469 5467 5466 5469 5471 5474 5478 5479 5481 5485 5489 5490 5489 5490 5490 5489 5487 5486 5487 5485 5482 5481 5481 5480 5479 5477
5477 5470 5465 5464 5462 5457 5455 5458 5456 5458 5463 5465 5465 5469 5472 5472 5469 5466 5463 5461 5460 5460 5461 5464 5463 5470 5471 5474 5478 5477 5477 5478 5478 5476 5475 5475 5473 5472 5474 5474 5475 5470 5469 5469
5471 5474 5468 5463 5465 5459 5457 5454 5451 5454 5454 5456 5458 5462 5466 5463 5463 5461 5457 5452 5450 5451 5451 5453 5455 5458 5457 5458 5459 5461 5463 5465 5466 5466 5465 5464 5463 5463 5462 5463 5462 5463 5464 5461
5468 5476 5471 5469 5469 5465 5460 5452 5449 5449 5447 5446 5447 5455 5458 5459 5458 5451 5446 5443 5441 5439 5439 5440 5440 5442 5442 5441 5441 5444 5447 5450 5452 5454 5454 5453 5453 5454 5454 5453 5455 5455 5455 5452